FW5493 Weather Reports


Display with metric or nautical units.
time (UTC)temp
F
wind
direction
speed
MPH
gust
MPH
rain 1hr
in
rain 24hr
in
rain mn
in
humidity
%
barometer
mb
20260903011543 64 238 12.0 22.0 0.00 0.00 0.00 49 1010.5
20260903010045 64 193 12.0 25.0 0.00 0.00 0.00 47 1010.2
20260903004535 66 202 16.0 27.0 0.00 0.00 0.00 45 1010.2
20260903003041 66 211 17.0 30.0 0.00 0.00 0.00 45 1010.1
20260903001538 66 221 22.0 31.0 0.00 0.00 0.00 44 1009.8
20260903000035 65 225 23.0 33.0 0.00 0.00 0.00 44 1009.6
20260902234551 64 250 17.0 32.0 0.00 0.00 0.00 47 1009.9
20260902233037 64 239 21.0 31.0 0.00 0.00 0.00 48 1009.6
20260902231543 61 232 17.0 28.0 0.00 0.00 0.00 56 1009.2
20260902230039 62 189 15.0 30.0 0.00 0.00 0.00 52 1008.6
20260902224542 60 213 19.0 32.0 0.00 0.00 0.00 57 1009.9
20260902223037 61 238 21.0 45.0 0.00 0.00 0.00 54 1009.6
20260902221536 61 259 32.0 52.0 0.00 0.00 0.00 57 1009.8
20260902220037 65 232 39.0 66.0 0.00 0.00 0.00 45 1009.8
20260902214541 68 223 33.0 59.0 0.00 0.00 0.00 42 1009.1
20260902213034 71 259 38.0 56.0 0.00 0.00 0.00 39 1008.1
20260902211537 83 183 14.0 23.0 0.00 0.00 0.00 26 1006.1
20260902210036 82 191 9.0 20.0 0.00 0.00 0.00 30 1006.2
20260902204537 83 190 10.0 16.0 0.00 0.00 0.00 34 1006.1
20260902203035 80 190 9.0 22.0 0.00 0.00 0.00 36 1006.4
20260902201540 80 216 9.0 13.0 0.00 0.00 0.00 38 1006.7
20260902200037 81 213 8.0 15.0 0.00 0.00 0.00 36 1007.0
20260902194537 81 350 1.0 5.0 0.00 0.00 0.00 41 1007.0
20260902193034 80 212 1.0 7.0 0.00 0.00 0.00 37 1007.2
20260902191537 80 80 4.0 9.0 0.00 0.00 0.00 37 1007.6
20260902190037 80 145 1.0 7.0 0.00 0.00 0.00 40 1007.8
20260902184538 78 209 3.0 8.0 0.00 0.00 0.00 40 1008.1
20260902183040 77 110 1.0 7.0 0.00 0.00 0.00 39 1008.0
20260902181534 77 167 5.0 11.0 0.00 0.00 0.00 40 1008.1
20260902180052 76 121 8.0 14.0 0.00 0.00 0.00 39 1008.6
20260902174536 76 184 7.0 14.0 0.00 0.00 0.00 42 1008.5
20260902173036 76 215 9.0 15.0 0.00 0.00 0.00 41 1008.8
20260902171548 75 143 7.0 14.0 0.00 0.00 0.00 43 1008.9
20260902170036 72 169 7.0 15.0 0.00 0.00 0.00 47 1009.2
20260902164535 72 194 7.0 16.0 0.00 0.00 0.00 48 1009.3
20260902163038 71 163 8.0 16.0 0.00 0.00 0.00 50 1009.2
20260902161541 70 200 9.0 19.0 0.00 0.00 0.00 49 1009.4
20260902160034 68 143 8.0 16.0 0.00 0.00 0.00 54 1009.7
20260902154535 67 150 6.0 15.0 0.00 0.00 0.00 56 1009.5
20260902153036 67 161 7.0 16.0 0.00 0.00 0.00 57 1009.6
20260902151536 67 150 7.0 12.0 0.00 0.00 0.00 58 1009.8
20260902150034 66 180 3.0 8.0 0.00 0.00 0.00 59 1009.9
20260902144537 64 90 0.0 3.0 0.00 0.00 0.00 61 1010.0
20260902143038 62 0 3.0 7.0 0.00 0.00 0.00 65 1010.3
20260902141538 61 0 0.0 3.0 0.00 0.00 0.00 67 1010.2
20260902140039 60 26 0.0 5.0 0.00 0.00 0.00 68 1010.3
20260902134535 60 129 4.0 10.0 0.00 0.00 0.00 68 1010.0
20260902133035 60 146 5.0 9.0 0.00 0.00 0.00 66 1010.2
20260902131538 59 186 3.0 6.0 0.00 0.00 0.00 67 1010.3
20260902130041 59 152 3.0 6.0 0.00 0.00 0.00 66 1010.6
20260902124535 59 173 2.0 5.0 0.00 0.00 0.00 66 1010.7
20260902123035 59 180 2.0 5.0 0.00 0.00 0.00 66 1010.6
20260902121535 59 279 1.0 3.0 0.00 0.00 0.00 66 1010.6
20260902120033 59 155 1.0 3.0 0.00 0.00 0.00 64 1010.7
20260902114602 60 0 0.0 3.0 0.00 0.00 0.00 64 1010.7
20260902113041 62 0 0.0 3.0 0.00 0.00 0.00 60 1011.0
20260902111537 63 0 0.0 3.0 0.00 0.00 0.00 59 1011.0
20260902110039 63 155 2.0 6.0 0.00 0.00 0.00 60 1011.0
20260902104539 63 136 3.0 8.0 0.00 0.00 0.00 59 1011.1
20260902103035 63 131 6.0 10.0 0.00 0.00 0.00 58 1010.9
20260902101534 64 113 2.0 6.0 0.00 0.00 0.00 56 1010.5
20260902100033 65 0 0.0 4.0 0.00 0.00 0.00 54 1010.6
20260902094535 67 0 0.0 10.0 0.00 0.00 0.00 50 1010.8
20260902093035 68 243 5.0 14.0 0.00 0.00 0.00 49 1011.2
20260902091546 68 205 10.0 19.0 0.00 0.00 0.00 49 1011.5
20260902090044 68 196 11.0 18.0 0.00 0.00 0.00 49 1011.6
20260902084535 68 215 12.0 25.0 0.00 0.00 0.00 48 1011.7
20260902083034 69 205 14.0 20.0 0.00 0.00 0.00 46 1011.8
20260902081540 69 229 14.0 22.0 0.00 0.00 0.00 47 1011.7
20260902080033 68 236 10.0 20.0 0.00 0.00 0.00 48 1011.8
20260902074547 67 250 9.0 17.0 0.00 0.00 0.00 48 1011.5
20260902073038 66 224 5.0 9.0 0.00 0.00 0.00 49 1011.4
20260902071534 67 0 0.0 8.0 0.00 0.00 0.00 48 1011.0
20260902070039 67 224 4.0 10.0 0.00 0.00 0.00 48 1010.9
20260902064539 67 200 4.0 9.0 0.00 0.00 0.00 48 1011.0
20260902063036 68 206 7.0 17.0 0.00 0.00 0.00 46 1010.9
20260902061543 70 189 11.0 20.0 0.00 0.00 0.00 44 1011.1
20260902060051 70 217 11.0 19.0 0.00 0.00 0.00 44 1011.1
20260902054541 66 250 12.0 18.0 0.00 0.00 0.00 49 1011.1
20260902053050 65 260 3.0 9.0 0.00 0.00 0.00 50 1011.0
20260902051540 62 149 5.0 8.0 0.00 0.00 0.00 55 1010.9
20260902050043 63 94 2.0 7.0 0.00 0.00 0.00 52 1010.8
20260902044539 63 96 2.0 6.0 0.00 0.00 0.00 53 1010.7
20260902043037 65 101 3.0 7.0 0.00 0.00 0.00 51 1010.7
20260902041539 65 0 0.0 4.0 0.00 0.00 0.00 48 1010.6
20260902040040 67 83 1.0 3.0 0.00 0.00 0.00 47 1010.8
20260902034540 69 0 1.0 9.0 0.00 0.00 0.00 45 1010.6
20260902033034 67 0 3.0 7.0 0.00 0.00 0.00 45 1010.5
20260902031538 69 77 3.0 9.0 0.00 0.00 0.00 42 1010.5
20260902030035 70 75 5.0 11.0 0.00 0.00 0.00 40 1010.3
20260902024538 70 68 8.0 11.0 0.00 0.00 0.00 41 1010.3
20260902023042 72 64 6.0 9.0 0.00 0.00 0.00 40 1010.3
20260902021537 74 65 7.0 11.0 0.00 0.00 0.00 37 1010.3
20260902020036 75 69 6.0 9.0 0.00 0.00 0.00 37 1010.4
20260902014539 77 84 6.0 10.0 0.00 0.00 0.00 36 1010.4
20260902013033 78 78 5.0 9.0 0.00 0.00 0.00 36 1010.3